Location: Goettingen
(51.5300°N, 9.9433°E)
Time: 10:13:26
(UTC+02:00)

ISS - Pass Details

Date: 11 May 2025
Orbit: 416 x 419 km, 51.6° (Epoch: 18 May)

Event Time Altitude Azimuth Distance (km) Brightness Sun altitude
Rises 00:35:32 0° 268° (W) 2,358 0.2 -20.0°
Reaches altitude 10° 00:37:37 10° 268° (W) 1,495 -0.9 -20.1°
Enters shadow 00:40:48 78° 287° (WNW) 430 -3.8 -20.1°
